Location: Hauppauge
(40.8260°N, 73.2030°W)
Time: 16:46:57
(UTC-04:00)

Daily predictions for brighter satellites

Satellite Brightness Start Highest point End
(mag) Time Altitude Azimuth Time Altitude Azimuth Time Altitude Azimuth
Cosmos 1408 3.5 20:37:13 10° SSE 20:40:24 29° E 20:43:35 10° NNE
NOSS 5 (C) 4.3 20:37:37 10° SSW 20:41:05 89° ESE 20:44:12 10° NE
H-2A R/B 3.0 20:38:09 10° S 20:41:51 71° W 20:45:36 10° NNW
Cosmos 1378 Rocket 4.1 20:38:52 10° N 20:42:57 39° ENE 20:47:00 10° SSE
Cosmos 1733 Rocket 3.5 20:39:23 10° SSW 20:43:45 69° W 20:48:08 10° N
Cosmos 1908 Rocket 3.8 20:40:24 10° S 20:44:40 52° E 20:49:00 10° NNE
SL-27 R/B 4.0 20:46:18 10° NW 20:49:39 36° WSW 20:52:56 10° S
Cosmos 1782 3.2 20:50:50 10° NNW 20:54:51 68° W 20:58:51 10° S
Cosmos 2341 Rocket 4.2 20:50:54 10° SSE 20:56:58 52° E 21:03:00 10° NNE
SEDSat Delta rocket 4.5 20:55:26 10° SW 20:58:42 19° S 21:01:13 12° SE
Cosmos 1833 Rocket 4.0 20:54:26 10° N 20:59:01 25° NE 21:03:24 11° ESE
Envisat 3.3 20:55:28 10° SE 21:00:21 50° ENE 21:05:16 10° N
Cosmos 1844 Rocket 3.7 20:56:43 10° SW 21:02:12 51° WNW 21:07:42 10° NNE
Cosmos 1825 2.2 20:59:48 10° S 21:03:34 62° E 21:07:21 10° NNE
deb Chang Zheng 4 3.9 21:00:17 10° NNE 21:04:34 47° E 21:08:51 10° S
Cosmos 2278 Rocket 2.2 21:01:13 10° SSW 21:06:54 86° ESE 21:12:37 10° NNE
ERS-1 Rocket 3.0 21:04:23 10° SSE 21:09:25 90° ENE 21:14:29 10° NNW
Cosmos 1420 Rocket 4.0 21:07:42 10° S 21:12:53 65° ESE 21:18:03 10° NNE
H-2A R/B 2.1 21:09:40 11° SSE 21:13:40 61° ENE 21:17:49 10° N
Timation 2 Rocket 4.0 21:08:04 10° NNW 21:14:02 65° ENE 21:19:05 15° SE
ISS -1.5 21:11:49 10° W 21:14:49 33° NNW 21:17:50 10° NE
Cosmos 1140 Rocket 3.5 21:11:00 10° NNW 21:16:10 73° ENE 21:20:40 14° SSE
APEX 3.5 21:14:03 10° SSW 21:17:55 65° ESE 21:23:02 10° NNE
Okean 3 3.4 21:13:52 10° N 21:18:09 77° E 21:22:12 11° SSE
Cosmos 2154 Rocket 4.1 21:12:34 10° S 21:18:48 83° W 21:25:02 10° N
Cosmos 1939 Rocket 2.8 21:15:02 10° SSE 21:18:54 89° E 21:22:53 10° NNW
Cosmos 489 Rocket 4.4 21:15:59 10° NNW 21:22:14 85° ENE 21:27:54 13° SSE
Cosmos 1238 Rocket 2.7 21:19:08 10° N 21:22:37 85° W 21:26:47 10° S
COSMOS 2487 3.0 21:19:10 10° NNW 21:22:44 59° WSW 21:25:58 12° S
Abrixas 2.7 21:20:34 10° SW 21:23:29 46° SE 21:26:19 11° ENE
CZ-4B R/B 4.3 21:21:55 10° NE 21:26:07 28° E 21:28:23 20° SE
Cosmos 2082 Rocket 2.6 21:21:38 10° NNW 21:27:11 50° ENE 21:30:58 20° SE
SPOT 5 3.2 21:23:31 15° SSE 21:27:58 66° ENE 21:33:18 10° N
Lacrosse 5 2.8 21:34:03 10° S 21:38:12 26° ESE 21:42:22 10° ENE
Cosmos 1184 Rocket 3.9 21:35:21 10° SSW 21:38:33 45° WNW 21:41:48 10° N
Cosmos 1812 4.3 21:36:29 10° NNE 21:39:21 20° ENE 21:39:59 19° E
Intercosmos 25 2.8 21:38:00 16° S 21:40:37 74° E 21:43:46 10° NNE
UNK 4.5 21:35:42 10° NNE 21:41:46 58° ESE 21:47:15 11° S
Cosmos 2366 rocket 4.2 21:37:33 16° SSE 21:42:26 51° E 21:48:32 10° NNE
H-2A R/B 3.5 21:40:11 18° E 21:42:30 24° ENE 21:46:40 10° NNE
Cosmos 2297 3.7 21:39:52 10° SSW 21:45:35 90° ESE 21:51:22 10° NNE
MetOp-B 4.1 21:43:40 20° SSE 21:47:25 81° ENE 21:52:47 10° NNW
Meteor 1-14 Rocket 4.1 21:44:01 10° S 21:49:39 75° E 21:55:14 10° NNE
Okean 2 Rocket 3.7 21:48:50 10° SSW 21:53:10 56° W 21:57:30 10° N
BREEZE-M DEB (TANK) 4.2 21:55:49 10° NW 21:57:13 15° N 21:59:02 10° NE
SPOT 1/Viking Rocket 3.6 21:55:17 28° SSE 21:58:02 70° ENE 22:03:14 10° N
Cosmos 1242 Rocket 3.8 21:59:04 10° NNW 22:02:32 39° W 22:04:46 19° SSW
NOSS 8 (E) 4.4 21:59:21 10° SW 22:02:48 85° WNW 22:06:30 10° NNE
USA 229 DEB 3.8 21:55:49 10° NW 22:02:58 86° NE 22:07:00 29° SE
USA 229 3.8 21:55:55 10° NW 22:03:04 85° NE 22:07:06 29° SE
Meteor 2-19 Rocket 4.5 22:05:32 27° SSE 22:08:50 60° E 22:14:50 10° NNE
ARGOS 3.1 22:09:06 33° SSE 22:11:36 81° ENE 22:16:58 10° NNW
YAOGAN 6 3.1 22:10:46 35° SSW 22:11:54 52° W 22:15:22 10° NNW
Cosmos 2369 Rocket 3.7 22:14:07 19° E 22:14:07 19° E 22:16:56 10° NE
CARTOSAT-1 4.4 22:12:41 32° E 22:13:15 33° ENE 22:17:07 10° N
Cosmos 2218 Rocket 4.1 22:08:10 12° S 22:14:14 80° W 22:20:39 10° N
Lacrosse 5 rocket 1.0 22:10:40 10° SW 22:14:35 67° SE 22:18:20 10° NE
GPS 2-05 Rocket1 4.4 22:11:23 10° WSW 22:13:49 26° SW 22:13:49 26° SW
OAO 3 Rocket 3.6 22:10:29 10° WSW 22:15:09 42° S 22:15:30 41° SSE
SL-08 RB Rocket 3.6 22:15:38 44° SSE 22:17:03 77° ENE 22:21:44 10° N
CZ-4 R/B 3.6 22:13:58 10° NNE 22:18:37 70° ESE 22:20:06 42° S
Meteor 2-8 Rocket 4.4 22:13:35 10° N 22:19:47 85° E 22:22:43 33° S
Cosmos 1536 Rocket 3.7 22:21:15 10° NNW 22:25:44 74° W 22:27:03 45° SSW
AVUM R/B 3.6 22:22:37 10° NNW 22:26:04 59° WSW 22:26:05 59° WSW
Gbstr 26 Del rocket 3.5 22:21:15 10° NW 22:26:19 57° NNE 22:27:30 42° E
Cosmos 1727 Rocket 3.9 22:21:19 10° N 22:27:31 85° W 22:30:27 34° S
Landsat 7 3.8 22:28:19 53° SE 22:29:20 72° ENE 22:34:06 10° N
Cosmos 1331 Rocket 3.8 22:27:09 32° SSW 22:29:38 85° ESE 22:34:49 10° NNE
IGS 5A 3.9 22:32:36 45° ENE 22:32:37 45° ENE 22:36:36 10° N
DELTA 2 DEB (DPAF) 4.0 22:34:27 65° SE 22:35:03 78° ENE 22:39:32 10° N
CZ-4C R/B 3.2 22:36:09 77° ESE 22:36:17 79° ENE 22:40:28 10° N
Cosmos 1110 Rocket 4.2 22:35:43 21° SSW 22:39:16 70° WNW 22:44:29 10° NNE
ATLAS 2AS CENTAUR R/B 4.5 22:34:40 10° NNW 22:41:30 28° NE 22:46:59 14° E
Meteor 1-20 Rocket 4.2 22:39:25 32° SSW 22:42:07 76° W 22:47:39 10° N
Cosmos 1400 Rocket 4.2 22:44:15 29° NE 22:44:15 29° NE 22:46:50 10° NNE
Cosmos 1833 Rocket 3.3 22:37:48 10° NW 22:43:13 49° WSW 22:45:06 35° SSW
Terra 1.7 22:44:32 66° ESE 22:45:02 72° ENE 22:49:47 10° N
Cosmos 1536 4.5 22:49:24 24° NE 22:49:24 24° NE 22:51:28 10° NNE
NOSS 3-1 (C) 4.1 22:42:14 10° NNW 22:49:49 72° NE 22:53:01 41° SE
ISS -0.1 22:50:16 10° NW 22:51:59 13° N 22:53:43 10° NNE
DMSP B5D2-2 3.9 22:47:15 10° NNE 22:52:30 77° ESE 22:53:13 64° SSE
Cosmos 1025 Rocket 3.9 22:48:22 10° N 22:52:00 39° ENE 22:52:00 39° ENE
USA 234 3.3 22:51:49 10° ENE 22:58:06 49° SE 22:58:06 49° SE
Cosmos 1821 Rocket 4.0 22:57:21 54° SE 22:58:19 60° E 23:04:25 10° NNE
Meteor 2-21 4.4 22:58:14 57° SE 22:59:20 68° E 23:05:31 10° NNE
Cosmos 1809 Rocket 4.4 23:03:31 59° SSE 23:04:41 76° E 23:10:52 10° N
Cosmos 1300 Rocket 4.2 23:04:46 47° WSW 23:05:23 51° W 23:09:44 10° N
Cosmos 1934 Rocket 4.0 23:05:08 55° ESE 23:05:35 56° E 23:11:29 10° NNE
Spot 4 3.7 23:06:34 86° SE 23:06:39 88° ENE 23:11:32 10° NNW
Cosmos 1486 Rocket 4.1 23:03:32 10° NNW 23:08:50 68° WSW 23:09:19 64° SW
Cosmos 1354 Rocket 4.0 23:05:04 10° NNW 23:10:20 66° ENE 23:10:29 65° E
Okean 1 4.5 23:06:55 10° NNW 23:10:39 37° W 23:10:39 37° W
Cosmos 2082 Rocket 3.9 23:06:32 10° NW 23:10:52 23° W 23:12:50 19° SW
Cosmos 2285 Rocket 3.9 23:12:34 63° SE 23:13:11 67° ESE 23:19:33 10° NNE
Okean 1 Rocket 3.8 23:13:53 46° W 23:14:18 47° WNW 23:18:37 10° N
Cosmos 1812 4.5 23:11:58 10° NNW 23:15:11 26° W 23:15:11 26° W
Cosmos 2123 Rocket 4.1 23:11:13 10° N 23:17:24 58° E 23:17:57 56° ESE
Lacrosse 5 2.5 23:15:53 10° WSW 23:20:53 55° NW 23:25:54 10° NE
Genesis I 4.5 23:21:07 39° WNW 23:21:22 40° NW 23:25:11 10° NNE
H-2A R/B 2.8 23:20:50 42° WSW 23:21:38 45° W 23:26:42 10° NNW
Meteor 2-4 Rocket 3.6 23:20:47 10° N 23:26:17 76° E 23:26:19 76° E
Cosmos 1818 4.4 23:32:09 38° ENE 23:32:09 38° ENE 23:35:46 10° NE
Meteor 2-15 Rocket 4.3 23:33:41 10° N 23:39:50 81° E 23:40:05 79° ESE
SL-8 R/B 4.3 23:35:08 10° WNW 23:39:35 54° N 23:39:35 54° N
Meteor 2-14 Rocket 4.4 23:42:33 70° SW 23:43:10 76° W 23:49:20 10° N
ASTEX 1 4.4 23:39:17 10° N 23:43:53 39° WNW 23:44:25 37° W
Meteor 2-15 4.3 23:39:44 10° N 23:45:51 77° W 23:46:10 75° SW
Iridium 4 Rocket 4.0 23:43:10 10° N 23:49:00 62° W 23:49:23 60° WSW
Cosmos 1315 Rocket 4.5 23:51:14 32° NNW 23:51:14 32° NNW 23:53:31 10° N
Lacrosse 5 rocket 3.8 23:51:22 10° WNW 23:54:07 18° NNW 23:56:48 10° NNE
